2021-01-07 00:07:43 r, 19.80m,0000000001Hz,0000456090c,0000000.990s, 008.3C,00002191
2021-01-07 00:17:46 r, 19.75m,0000000001Hz,0000434778c,0000000.944s, 008.3C,00002191
2021-01-07 00:27:44 r, 19.63m,0000000001Hz,0000389597c,0000000.845s, 008.3C,00002191
2021-01-07 00:37:43 r, 19.47m,0000000001Hz,0000337260c,0000000.732s, 008.0C,00002191
2021-01-07 00:47:44 r, 19.30m,0000000002Hz,0000290041c,0000000.629s, 008.0C,00002191
2021-01-07 00:57:46 r, 19.38m,0000000002Hz,0000310889c,0000000.675s, 008.3C,00002191
2021-01-07 01:07:43 r, 19.51m,0000000001Hz,0000352146c,0000000.764s, 008.3C,00002191
2021-01-07 01:17:45 r, 19.79m,0000000001Hz,0000454051c,0000000.985s, 008.7C,00002191
2021-01-07 01:27:44 r, 19.96m,0000000001Hz,0000526103c,0000001.142s, 008.3C,00002191
2021-01-07 01:37:43 r, 19.96m,0000000001Hz,0000523149c,0000001.135s, 008.3C,00002191
2021-01-07 01:47:46 r, 20.09m,0000000001Hz,0000592236c,0000001.285s, 008.3C,00002191
2021-01-07 01:57:44 r, 20.13m,0000000000Hz,0000611451c,0000001.327s, 008.3C,00002191
2021-01-07 02:07:43 r, 20.07m,0000000001Hz,0000583727c,0000001.267s, 008.3C,00002191
2021-01-07 02:17:46 r, 20.05m,0000000001Hz,0000572108c,0000001.242s, 008.0C,00002191
2021-01-07 02:27:44 r, 20.05m,0000000001Hz,0000570078c,0000001.237s, 008.0C,00002191
2021-01-07 02:37:43 r, 20.04m,0000000001Hz,0000568277c,0000001.233s, 008.0C,00002191
2021-01-07 02:47:44 r, 20.07m,0000000001Hz,0000583761c,0000001.267s, 008.0C,00002191
2021-01-07 02:57:45 r, 20.05m,0000000001Hz,0000572325c,0000001.242s, 008.0C,00002191
2021-01-07 03:07:43 r, 19.82m,0000000001Hz,0000463720c,0000001.006s, 008.0C,00002191
2021-01-07 03:17:45 r, 19.35m,0000000002Hz,0000301689c,0000000.655s, 008.3C,00002191
2021-01-07 03:27:44 r, 19.29m,0000000001Hz,0000285111c,0000000.619s, 008.3C,00002191
2021-01-07 03:37:43 r, 19.54m,0000000001Hz,0000360010c,0000000.781s, 008.3C,00002191
2021-01-07 03:47:44 r, 19.59m,0000000001Hz,0000376230c,0000000.816s, 008.3C,00002191
2021-01-07 03:57:46 r, 19.61m,0000000001Hz,0000382982c,0000000.831s, 008.3C,00002191
2021-01-07 04:07:43 r, 19.61m,0000000001Hz,0000383462c,0000000.832s, 008.7C,00002191
2021-01-07 04:17:46 r, 19.58m,0000000001Hz,0000371756c,0000000.807s, 008.7C,00002191
2021-01-07 04:27:44 r, 19.63m,0000000002Hz,0000390394c,0000000.847s, 008.7C,00002191
2021-01-07 04:37:43 r, 19.65m,0000000002Hz,0000398361c,0000000.864s, 008.7C,00002191
2021-01-07 04:47:46 r, 19.64m,0000000002Hz,0000391728c,0000000.850s, 008.7C,00002191
2021-01-07 04:57:44 r, 19.70m,0000000001Hz,0000414722c,0000000.900s, 008.3C,00002191
2021-01-07 05:07:43 r, 19.77m,0000000001Hz,0000442674c,0000000.961s, 008.3C,00002191
2021-01-07 05:17:44 r, 19.86m,0000000001Hz,0000481989c,0000001.046s, 008.3C,00002191
2021-01-07 05:27:45 r, 19.87m,0000000001Hz,0000484721c,0000001.052s, 008.3C,00002191
2021-01-07 05:37:43 r, 19.87m,0000000000Hz,0000484715c,0000001.052s, 008.0C,00002191
2021-01-07 05:47:45 r, 19.87m,0000000001Hz,0000485740c,0000001.054s, 008.0C,00002191
2021-01-07 05:57:44 r, 19.80m,0000000001Hz,0000456914c,0000000.992s, 008.0C,00002191
2021-01-07 06:07:44 r, 19.71m,0000000001Hz,0000418474c,0000000.908s, 008.0C,00002191
2021-01-07 06:17:44 r, 19.58m,0000000001Hz,0000372495c,0000000.808s, 008.0C,00002191
2021-01-07 06:27:46 r, 19.61m,0000000001Hz,0000381890c,0000000.829s, 008.0C,00002191
2021-01-07 06:37:43 r, 19.62m,0000000002Hz,0000385068c,0000000.836s, 008.3C,00002191
2021-01-07 06:47:46 r, 19.58m,0000000001Hz,0000373379c,0000000.810s, 008.3C,00002191
2021-01-07 06:57:44 r, 19.44m,0000000001Hz,0000328114c,0000000.712s, 008.3C,00002191
2021-01-07 07:07:43 r, 18.95m,0000000002Hz,0000208623c,0000000.453s, 008.3C,00002191
2021-01-07 07:17:46 r, 17.99m,0000000005Hz,0000086359c,0000000.187s, 008.0C,00002191
2021-01-07 07:27:44 r, 16.67m,0000000018Hz,0000025483c,0000000.055s, 008.0C,00002191
2021-01-07 07:37:43 r, 15.00m,0000000083Hz,0000005502c,0000000.012s, 008.0C,00002191
2021-01-07 07:47:44 r, 13.06m,0000000505Hz,0000000000c,0000000.000s, 008.0C,00002191
2021-01-07 07:57:45 r, 11.20m,0000002801Hz,0000000000c,0000000.000s, 008.0C,00002191
2021-01-07 08:07:43 r, 09.46m,0000013831Hz,0000000000c,0000000.000s, 008.0C,00002191
2021-01-07 08:17:45 r, 08.08m,0000049329Hz,0000000000c,0000000.000s, 007.7C,00002191
2021-01-07 08:27:44 r, 07.14m,0000117998Hz,0000000000c,0000000.000s, 008.0C,00002191
2021-01-07 08:37:43 r, 06.26m,0000264750Hz,0000000000c,0000000.000s, 008.0C,00002191
2021-01-07 08:47:44 r, 00.00m,0000449992Hz,0000000000c,0000000.000s, 008.3C,00002191
2021-01-07 08:57:46 r, 00.00m,0000569610Hz,0000000000c,0000000.000s, 008.7C,00002191
2021-01-07 09:07:43 r, 00.00m,0000598583Hz,0000000000c,0000000.000s, 009.3C,00002191
2021-01-07 09:17:46 r, 00.00m,0000598525Hz,0000000000c,0000000.000s, 009.6C,00002191
2021-01-07 09:27:44 r, 00.00m,0000598491Hz,0000000000c,0000000.000s, 009.6C,00002191
2021-01-07 09:37:43 r, 00.00m,0000598424Hz,0000000000c,0000000.000s, 009.9C,00002191
2021-01-07 09:47:44 r, 00.00m,0000598424Hz,0000000000c,0000000.000s, 010.3C,00002191
2021-01-07 09:57:45 r, 00.00m,0000598426Hz,0000000000c,0000000.000s, 010.3C,00002191
2021-01-07 10:07:43 r, 00.00m,0000598431Hz,0000000000c,0000000.000s, 010.6C,00002191
2021-01-07 10:17:43 r, 00.00m,0000598369Hz,0000000000c,0000000.000s, 010.9C,00002191
2021-01-07 10:27:46 r, 00.00m,0000598277Hz,0000000000c,0000000.000s, 011.2C,00002191
2021-01-07 10:37:43 r, 00.00m,0000598153Hz,0000000000c,0000000.000s, 011.6C,00002191
2021-01-07 10:47:43 r, 00.00m,0000598072Hz,0000000000c,0000000.000s, 011.9C,00002191
2021-01-07 10:57:46 r, 00.00m,0000598115Hz,0000000000c,0000000.000s, 012.5C,00002191
2021-01-07 11:07:43 r, 00.00m,0000598007Hz,0000000000c,0000000.000s, 012.8C,00002191
2021-01-07 11:17:43 r, 00.00m,0000598007Hz,0000000000c,0000000.000s, 013.2C,00002191
2021-01-07 11:27:44 r, 00.00m,0000597890Hz,0000000000c,0000000.000s, 013.5C,00002191
2021-01-07 11:37:43 r, 00.00m,0000598019Hz,0000000000c,0000000.000s, 013.5C,00002191
2021-01-07 11:47:43 r, 00.00m,0000598101Hz,0000000000c,0000000.000s, 012.8C,00002191
2021-01-07 11:57:44 r, 00.00m,0000598167Hz,0000000000c,0000000.000s, 012.5C,00002191
2021-01-07 12:07:43 r, 00.00m,0000598188Hz,0000000000c,0000000.000s, 012.2C,00002191
2021-01-07 12:17:43 r, 00.00m,0000598010Hz,0000000000c,0000000.000s, 012.5C,00002191
2021-01-07 12:27:45 r, 00.00m,0000598038Hz,0000000000c,0000000.000s, 013.2C,00002191
2021-01-07 12:37:43 r, 00.00m,0000598067Hz,0000000000c,0000000.000s, 013.2C,00002191
2021-01-07 12:47:43 r, 00.00m,0000598103Hz,0000000000c,0000000.000s, 013.2C,00002191
2021-01-07 12:57:46 r, 00.00m,0000598045Hz,0000000000c,0000000.000s, 013.2C,00002191
2021-01-07 13:07:43 r, 00.00m,0000598028Hz,0000000000c,0000000.000s, 013.2C,00002191
2021-01-07 13:17:43 r, 00.00m,0000598035Hz,0000000000c,0000000.000s, 013.2C,00002191
2021-01-07 13:27:46 r, 00.00m,0000598146Hz,0000000000c,0000000.000s, 013.5C,00002191
2021-01-07 13:37:43 r, 00.00m,0000598134Hz,0000000000c,0000000.000s, 013.2C,00002191
2021-01-07 13:47:43 r, 00.00m,0000598088Hz,0000000000c,0000000.000s, 013.2C,00002191
2021-01-07 13:57:44 r, 00.00m,0000598049Hz,0000000000c,0000000.000s, 013.2C,00002191
2021-01-07 14:07:43 r, 00.00m,0000597980Hz,0000000000c,0000000.000s, 013.2C,00002191
2021-01-07 14:17:43 r, 00.00m,0000598062Hz,0000000000c,0000000.000s, 013.2C,00002191
2021-01-07 14:27:44 r, 00.00m,0000598145Hz,0000000000c,0000000.000s, 013.2C,00002191
2021-01-07 14:37:43 r, 00.00m,0000598053Hz,0000000000c,0000000.000s, 013.2C,00002191
2021-01-07 14:47:43 r, 00.00m,0000598074Hz,0000000000c,0000000.000s, 013.2C,00002191
2021-01-07 14:57:45 r, 00.00m,0000598116Hz,0000000000c,0000000.000s, 013.2C,00002191
2021-01-07 15:07:43 r, 00.00m,0000598144Hz,0000000000c,0000000.000s, 013.2C,00002191
2021-01-07 15:17:43 r, 00.00m,0000598051Hz,0000000000c,0000000.000s, 012.8C,00002191
2021-01-07 15:27:46 r, 00.00m,0000598099Hz,0000000000c,0000000.000s, 012.8C,00002191
2021-01-07 15:37:43 r, 00.00m,0000598153Hz,0000000000c,0000000.000s, 012.5C,00002191
2021-01-07 15:47:43 r, 00.00m,0000598121Hz,0000000000c,0000000.000s, 012.2C,00002191
2021-01-07 15:57:46 r, 00.00m,0000589010Hz,0000000000c,0000000.000s, 012.5C,00002191
2021-01-07 16:07:43 r, 00.00m,0000466810Hz,0000000000c,0000000.000s, 012.2C,00002191
2021-01-07 16:17:43 r, 05.96m,0000352197Hz,0000000000c,0000000.000s, 012.2C,00002191
2021-01-07 16:27:44 r, 06.41m,0000230959Hz,0000000000c,0000000.000s, 012.2C,00002191
2021-01-07 16:37:46 r, 07.16m,0000116223Hz,0000000000c,0000000.000s, 011.9C,00002191
2021-01-07 16:47:43 r, 07.99m,0000053835Hz,0000000000c,0000000.000s, 011.9C,00002191
2021-01-07 16:57:45 r, 09.25m,0000017003Hz,0000000000c,0000000.000s, 011.9C,00002191
2021-01-07 17:07:44 r, 10.64m,0000004676Hz,0000000000c,0000000.000s, 011.9C,00002191
2021-01-07 17:17:43 r, 12.34m,0000000980Hz,0000000000c,0000000.000s, 011.9C,00002191
2021-01-07 17:27:46 r, 14.09m,0000000195Hz,0000000000c,0000000.000s, 011.9C,00002191
2021-01-07 17:37:44 r, 15.86m,0000000039Hz,0000012072c,0000000.026s, 011.9C,00002191
2021-01-07 17:47:43 r, 17.20m,0000000011Hz,0000041512c,0000000.090s, 011.9C,00002191
2021-01-07 17:57:46 r, 17.85m,0000000006Hz,0000076069c,0000000.165s, 011.9C,00002191
2021-01-07 18:07:44 r, 18.27m,0000000005Hz,0000111722c,0000000.242s, 011.9C,00002191
2021-01-07 18:17:43 r, 18.02m,0000000005Hz,0000088308c,0000000.192s, 011.9C,00002191
2021-01-07 18:27:44 r, 17.86m,0000000006Hz,0000076737c,0000000.167s, 011.9C,00002191
2021-01-07 18:37:45 r, 17.92m,0000000006Hz,0000081258c,0000000.176s, 012.2C,00002191
2021-01-07 18:47:43 r, 18.06m,0000000005Hz,0000091590c,0000000.199s, 012.2C,00002191
2021-01-07 18:57:45 r, 18.08m,0000000005Hz,0000093498c,0000000.203s, 012.2C,00002191
2021-01-07 19:07:44 r, 18.02m,0000000005Hz,0000088223c,0000000.191s, 012.2C,00002191
2021-01-07 19:17:43 r, 18.24m,0000000004Hz,0000108346c,0000000.235s, 012.2C,00002191
2021-01-07 19:27:44 r, 18.27m,0000000004Hz,0000112026c,0000000.243s, 012.2C,00002191
2021-01-07 19:37:46 r, 18.25m,0000000004Hz,0000109218c,0000000.237s, 012.2C,00002191
2021-01-07 19:47:43 r, 18.32m,0000000004Hz,0000117071c,0000000.254s, 012.2C,00002191
2021-01-07 19:57:46 r, 18.16m,0000000005Hz,0000100635c,0000000.218s, 012.2C,00002191
2021-01-07 20:07:44 r, 18.10m,0000000005Hz,0000095061c,0000000.206s, 012.2C,00002191
2021-01-07 20:17:44 r, 18.21m,0000000004Hz,0000105266c,0000000.228s, 011.9C,00002191
2021-01-07 20:27:46 r, 18.01m,0000000005Hz,0000087553c,0000000.190s, 011.9C,00002191
2021-01-07 20:37:44 r, 18.21m,0000000005Hz,0000105891c,0000000.230s, 011.9C,00002191
2021-01-07 20:47:43 r, 18.19m,0000000005Hz,0000103740c,0000000.225s, 011.6C,00002191
2021-01-07 20:57:44 r, 18.01m,0000000006Hz,0000087704c,0000000.190s, 011.6C,00002191
2021-01-07 21:07:45 r, 18.22m,0000000005Hz,0000106718c,0000000.232s, 011.6C,00002191
2021-01-07 21:17:43 r, 18.13m,0000000005Hz,0000098217c,0000000.213s, 011.6C,00002191
2021-01-07 21:27:45 r, 18.13m,0000000005Hz,0000097418c,0000000.211s, 011.6C,00002191
2021-01-07 21:37:44 r, 18.13m,0000000004Hz,0000097911c,0000000.212s, 011.2C,00002191
2021-01-07 21:47:43 r, 18.21m,0000000005Hz,0000105335c,0000000.229s, 011.6C,00002191
2021-01-07 21:57:44 r, 18.21m,0000000004Hz,0000105214c,0000000.228s, 011.6C,00002191
2021-01-07 22:07:46 r, 18.23m,0000000004Hz,0000107022c,0000000.232s, 011.6C,00002191
2021-01-07 22:17:43 r, 18.29m,0000000004Hz,0000112342c,0000000.244s, 011.6C,00002191
2021-01-07 22:27:46 r, 18.16m,0000000005Hz,0000100991c,0000000.219s, 011.6C,00002191
2021-01-07 22:37:44 r, 18.19m,0000000004Hz,0000103400c,0000000.224s, 011.2C,00002191
2021-01-07 22:47:43 r, 18.16m,0000000005Hz,0000099975c,0000000.217s, 011.2C,00002191
2021-01-07 22:57:46 r, 18.14m,0000000005Hz,0000099224c,0000000.215s, 011.2C,00002191
2021-01-07 23:07:44 r, 18.11m,0000000005Hz,0000096105c,0000000.209s, 011.2C,00002191
2021-01-07 23:17:43 r, 18.11m,0000000005Hz,0000095035c,0000000.206s, 010.9C,00002191
2021-01-07 23:27:44 r, 18.11m,0000000005Hz,0000095013c,0000000.206s, 010.9C,00002191
2021-01-07 23:37:46 r, 18.06m,0000000005Hz,0000091412c,0000000.198s, 010.6C,00002191
2021-01-07 23:47:44 r, 18.43m,0000000004Hz,0000128581c,0000000.279s, 010.6C,00002191
2021-01-07 23:57:45 r, 18.32m,0000000004Hz,0000116194c,0000000.252s, 010.6C,00002191
